Time,TemperatureF,DewpointF,PressureIn,WindDirection,WindDirectionDegrees,WindSpeedMPH,WindSpeedGustMPH,Humidity,HourlyPrecipIn,Conditions,Clouds,dailyrainin,SoftwareType,DateUTC
2014-08-21 00:00:00,73.5,69.7,30.01,SW,214,0.0,3.0,88,0.00,,,0.00,Wunderground v.1.15,2014-08-21 04:00:00,
2014-08-21 00:01:00,73.5,69.7,30.01,SW,214,0.0,3.0,88,0.00,,,0.00,Wunderground v.1.15,2014-08-21 04:01:00,
2014-08-21 00:07:00,73.4,69.6,30.01,SW,214,0.0,0.0,88,0.00,,,0.00,Wunderground v.1.15,2014-08-21 04:07:00,
2014-08-21 00:08:00,73.4,69.6,30.01,SW,214,0.0,0.0,88,0.00,,,0.00,Wunderground v.1.15,2014-08-21 04:08:00,
2014-08-21 00:09:00,73.4,69.6,30.01,SW,214,0.0,0.0,88,0.00,,,0.00,Wunderground v.1.15,2014-08-21 04:09:00,
2014-08-21 00:10:00,73.4,69.6,30.01,SW,214,0.0,0.0,88,0.00,,,0.00,Wunderground v.1.15,2014-08-21 04:10:00,
2014-08-21 00:12:00,73.4,69.6,30.01,SW,214,0.0,0.0,88,0.00,,,0.00,Wunderground v.1.15,2014-08-21 04:12:00,
2014-08-21 00:15:00,73.3,69.5,30.01,SSW,213,2.0,2.0,88,0.00,,,0.00,Wunderground v.1.15,2014-08-21 04:15:00,
2014-08-21 00:16:00,73.3,69.5,30.01,SW,216,0.0,2.0,88,0.00,,,0.00,Wunderground v.1.15,2014-08-21 04:16:00,
2014-08-21 00:18:00,73.3,69.5,30.01,SW,215,1.0,2.0,88,0.00,,,0.00,Wunderground v.1.15,2014-08-21 04:18:00,
2014-08-21 00:19:00,73.3,69.5,30.01,SW,215,1.0,2.0,88,0.00,,,0.00,Wunderground v.1.15,2014-08-21 04:19:00,
2014-08-21 00:20:00,73.3,69.5,30.01,SW,215,0.0,2.0,88,0.00,,,0.00,Wunderground v.1.15,2014-08-21 04:20:00,
2014-08-21 00:21:00,73.3,69.5,30.01,SE,134,4.0,4.0,88,0.00,,,0.00,Wunderground v.1.15,2014-08-21 04:21:00,
2014-08-21 00:22:00,73.3,69.5,30.01,SW,229,2.0,4.0,88,0.00,,,0.00,Wunderground v.1.15,2014-08-21 04:22:00,
2014-08-21 00:24:00,73.3,69.5,30.01,West,265,1.0,1.0,88,0.00,,,0.00,Wunderground v.1.15,2014-08-21 04:24:00,
2014-08-21 00:25:00,73.3,69.5,30.01,West,265,0.0,1.0,88,0.00,,,0.00,Wunderground v.1.15,2014-08-21 04:25:00,
2014-08-21 00:26:00,73.3,69.5,30.01,West,265,1.0,1.0,88,0.00,,,0.00,Wunderground v.1.15,2014-08-21 04:26:00,
2014-08-21 00:27:00,73.3,69.5,30.01,West,265,0.0,1.0,88,0.00,,,0.00,Wunderground v.1.15,2014-08-21 04:27:00,
2014-08-21 00:31:00,73.3,69.2,30.01,South,176,0.0,4.0,87,0.00,,,0.00,Wunderground v.1.15,2014-08-21 04:31:00,
2014-08-21 00:33:00,73.3,69.2,30.01,West,263,0.0,4.0,87,0.00,,,0.00,Wunderground v.1.15,2014-08-21 04:33:00,
2014-08-21 00:34:00,73.3,69.2,30.01,West,263,0.0,1.0,87,0.00,,,0.00,Wunderground v.1.15,2014-08-21 04:34:00,
2014-08-21 00:40:00,73.3,69.2,30.01,South,188,0.0,1.0,87,0.00,,,0.00,Wunderground v.1.15,2014-08-21 04:40:00,
2014-08-21 00:41:00,73.3,69.2,30.01,West,263,0.0,1.0,87,0.00,,,0.00,Wunderground v.1.15,2014-08-21 04:41:00,
2014-08-21 00:46:00,73.4,69.3,30.01,WSW,240,0.0,1.0,87,0.00,,,0.00,Wunderground v.1.15,2014-08-21 04:46:00,
2014-08-21 00:47:00,73.4,69.3,30.01,WSW,240,0.0,1.0,87,0.00,,,0.00,Wunderground v.1.15,2014-08-21 04:47:00,
2014-08-21 00:51:00,73.4,69.3,30.01,WSW,240,0.0,1.0,87,0.00,,,0.00,Wunderground v.1.15,2014-08-21 04:51:00,
2014-08-21 00:52:00,73.3,69.2,30.01,WSW,240,0.0,1.0,87,0.00,,,0.00,Wunderground v.1.15,2014-08-21 04:52:00,
2014-08-21 00:53:00,73.3,69.2,30.01,WSW,240,0.0,1.0,87,0.00,,,0.00,Wunderground v.1.15,2014-08-21 04:53:00,
2014-08-21 00:54:00,73.3,69.2,30.01,WSW,240,1.0,1.0,87,0.00,,,0.00,Wunderground v.1.15,2014-08-21 04:54:00,
2014-08-21 00:56:00,73.3,69.2,30.01,WSW,240,0.0,1.0,87,0.00,,,0.00,Wunderground v.1.15,2014-08-21 04:56:00,
2014-08-21 00:57:00,73.3,69.2,30.01,WSW,240,0.0,1.0,87,0.00,,,0.00,Wunderground v.1.15,2014-08-21 04:57:00,
2014-08-21 00:59:00,73.3,69.2,30.01,WSW,240,0.0,1.0,87,0.00,,,0.00,Wunderground v.1.15,2014-08-21 04:59:00,
2014-08-21 01:01:00,73.2,69.4,30.01,WSW,240,0.0,1.0,88,0.00,,,0.00,Wunderground v.1.15,2014-08-21 05:01:00,
2014-08-21 01:03:00,73.2,69.1,30.01,SW,226,0.0,1.0,87,0.00,,,0.00,Wunderground v.1.15,2014-08-21 05:03:00,
2014-08-21 01:06:00,73.1,69.3,30.01,SW,226,0.0,0.0,88,0.00,,,0.00,Wunderground v.1.15,2014-08-21 05:06:00,
2014-08-21 01:10:00,73.0,69.2,30.01,SW,222,0.0,0.0,88,0.00,,,0.00,Wunderground v.1.15,2014-08-21 05:10:00,
2014-08-21 01:12:00,72.9,69.1,30.01,SW,222,0.0,0.0,88,0.00,,,0.00,Wunderground v.1.15,2014-08-21 05:12:00,
2014-08-21 01:13:00,72.8,69.0,30.01,SW,222,0.0,0.0,88,0.00,,,0.00,Wunderground v.1.15,2014-08-21 05:13:00,
2014-08-21 01:17:00,72.6,69.2,30.01,SW,222,0.0,0.0,89,0.00,,,0.00,Wunderground v.1.15,2014-08-21 05:17:00,
2014-08-21 01:18:00,72.6,69.2,30.01,SW,222,0.0,0.0,89,0.00,,,0.00,Wunderground v.1.15,2014-08-21 05:18:00,
2014-08-21 01:19:00,72.6,69.2,30.01,SW,222,0.0,0.0,89,0.00,,,0.00,Wunderground v.1.15,2014-08-21 05:19:00,
2014-08-21 01:22:00,72.5,69.1,30.01,SW,222,0.0,0.0,89,0.00,,,0.00,Wunderground v.1.15,2014-08-21 05:22:00,
2014-08-21 01:23:00,72.5,69.1,30.01,SW,222,0.0,0.0,89,0.00,,,0.00,Wunderground v.1.15,2014-08-21 05:23:00,
2014-08-21 01:24:00,72.4,69.0,30.01,SW,222,0.0,0.0,89,0.00,,,0.00,Wunderground v.1.15,2014-08-21 05:24:00,
2014-08-21 01:27:00,72.3,68.9,30.01,SW,222,0.0,0.0,89,0.00,,,0.00,Wunderground v.1.15,2014-08-21 05:27:00,
2014-08-21 01:28:00,72.2,68.8,30.01,SW,222,1.0,1.0,89,0.00,,,0.00,Wunderground v.1.15,2014-08-21 05:28:00,
2014-08-21 01:29:00,72.2,68.8,30.01,SW,222,0.0,1.0,89,0.00,,,0.00,Wunderground v.1.15,2014-08-21 05:29:00,
2014-08-21 01:30:00,72.2,68.8,30.01,SW,222,0.0,1.0,89,0.00,,,0.00,Wunderground v.1.15,2014-08-21 05:30:00,
2014-08-21 01:33:00,72.1,69.0,30.01,SW,222,0.0,1.0,90,0.00,,,0.00,Wunderground v.1.15,2014-08-21 05:33:00,
2014-08-21 01:34:00,72.1,69.0,30.01,SW,222,0.0,0.0,90,0.00,,,0.00,Wunderground v.1.15,2014-08-21 05:34:00,
2014-08-21 01:36:00,72.1,69.0,30.01,SW,222,0.0,0.0,90,0.00,,,0.00,Wunderground v.1.15,2014-08-21 05:36:00,
2014-08-21 01:39:00,72.1,69.0,30.01,SW,222,0.0,0.0,90,0.00,,,0.00,Wunderground v.1.15,2014-08-21 05:39:00,
2014-08-21 01:41:00,72.0,68.9,30.01,SW,222,0.0,0.0,90,0.00,,,0.00,Wunderground v.1.15,2014-08-21 05:41:00,
2014-08-21 01:42:00,72.0,68.9,30.01,SSW,213,0.0,0.0,90,0.00,,,0.00,Wunderground v.1.15,2014-08-21 05:42:00,
2014-08-21 01:44:00,72.0,68.9,30.01,SSW,213,0.0,0.0,90,0.00,,,0.00,Wunderground v.1.15,2014-08-21 05:44:00,
2014-08-21 01:46:00,72.0,68.9,30.01,SSW,197,1.0,1.0,90,0.00,,,0.00,Wunderground v.1.15,2014-08-21 05:46:00,
2014-08-21 01:47:00,72.0,68.9,30.01,SSW,197,0.0,1.0,90,0.00,,,0.00,Wunderground v.1.15,2014-08-21 05:47:00,
2014-08-21 01:48:00,72.0,68.9,30.01,SSW,197,0.0,1.0,90,0.00,,,0.00,Wunderground v.1.15,2014-08-21 05:48:00,
2014-08-21 01:49:00,72.0,68.9,30.01,SSW,197,0.0,1.0,90,0.00,,,0.00,Wunderground v.1.15,2014-08-21 05:49:00,
2014-08-21 01:54:00,72.1,69.3,30.01,SSW,198,0.0,0.0,91,0.00,,,0.00,Wunderground v.1.15,2014-08-21 05:54:00,
2014-08-21 01:55:00,72.1,69.3,30.01,SSW,198,0.0,0.0,91,0.00,,,0.00,Wunderground v.1.15,2014-08-21 05:55:00,
2014-08-21 01:56:00,72.1,69.3,30.01,SSW,198,0.0,0.0,91,0.00,,,0.00,Wunderground v.1.15,2014-08-21 05:56:00,
2014-08-21 01:58:00,72.1,69.3,30.01,SSW,198,0.0,0.0,91,0.00,,,0.00,Wunderground v.1.15,2014-08-21 05:58:00,
2014-08-21 01:59:00,72.1,69.3,30.01,SSW,198,0.0,0.0,91,0.00,,,0.00,Wunderground v.1.15,2014-08-21 05:59:00,
2014-08-21 02:00:00,72.1,69.3,30.02,SSW,198,0.0,0.0,91,0.00,,,0.00,Wunderground v.1.15,2014-08-21 06:00:00,
2014-08-21 02:03:00,72.0,69.2,30.01,SSW,198,0.0,0.0,91,0.00,,,0.00,Wunderground v.1.15,2014-08-21 06:03:00,
2014-08-21 02:04:00,72.0,69.2,30.01,SSW,198,0.0,0.0,91,0.00,,,0.00,Wunderground v.1.15,2014-08-21 06:04:00,
2014-08-21 02:05:00,72.0,69.2,30.01,SSW,198,0.0,0.0,91,0.00,,,0.00,Wunderground v.1.15,2014-08-21 06:05:00,
2014-08-21 02:08:00,72.0,69.2,30.02,SSW,198,0.0,0.0,91,0.00,,,0.00,Wunderground v.1.15,2014-08-21 06:08:00,
2014-08-21 02:09:00,72.0,69.2,30.02,SSW,198,0.0,0.0,91,0.00,,,0.00,Wunderground v.1.15,2014-08-21 06:09:00,
2014-08-21 02:10:00,72.0,69.2,30.02,SSW,198,0.0,2.0,91,0.00,,,0.00,Wunderground v.1.15,2014-08-21 06:10:00,
2014-08-21 02:11:00,72.0,69.2,30.02,SSW,198,0.0,2.0,91,0.00,,,0.00,Wunderground v.1.15,2014-08-21 06:11:00,
2014-08-21 02:13:00,72.0,69.2,30.02,SSW,198,0.0,2.0,91,0.00,,,0.00,Wunderground v.1.15,2014-08-21 06:13:00,
2014-08-21 02:14:00,71.9,69.1,30.02,SSW,198,0.0,0.0,91,0.00,,,0.00,Wunderground v.1.15,2014-08-21 06:14:00,
2014-08-21 02:15:00,71.9,69.1,30.01,SSW,198,0.0,0.0,91,0.00,,,0.00,Wunderground v.1.15,2014-08-21 06:15:00,
2014-08-21 02:16:00,71.9,69.1,30.01,SSW,198,0.0,0.0,91,0.00,,,0.00,Wunderground v.1.15,2014-08-21 06:16:00,
2014-08-21 02:18:00,71.9,69.1,30.01,SSW,198,0.0,0.0,91,0.00,,,0.00,Wunderground v.1.15,2014-08-21 06:18:00,
2014-08-21 02:19:00,71.9,69.1,30.01,SSW,198,0.0,0.0,91,0.00,,,0.00,Wunderground v.1.15,2014-08-21 06:19:00,
2014-08-21 02:20:00,71.9,69.1,30.01,SSW,198,0.0,0.0,91,0.00,,,0.00,Wunderground v.1.15,2014-08-21 06:20:00,
2014-08-21 02:21:00,71.8,69.0,30.01,SSW,198,0.0,0.0,91,0.00,,,0.00,Wunderground v.1.15,2014-08-21 06:21:00,
2014-08-21 02:24:00,71.7,68.9,30.02,SSW,198,0.0,0.0,91,0.00,,,0.00,Wunderground v.1.15,2014-08-21 06:24:00,
2014-08-21 02:26:00,71.7,68.9,30.01,SSW,198,0.0,0.0,91,0.00,,,0.00,Wunderground v.1.15,2014-08-21 06:26:00,
2014-08-21 02:27:00,71.6,68.8,30.01,SSW,198,0.0,0.0,91,0.00,,,0.00,Wunderground v.1.15,2014-08-21 06:27:00,
2014-08-21 02:29:00,71.5,69.1,30.01,SSW,198,0.0,0.0,92,0.00,,,0.00,Wunderground v.1.15,2014-08-21 06:29:00,
2014-08-21 02:31:00,71.5,69.1,30.01,SSW,198,0.0,0.0,92,0.00,,,0.00,Wunderground v.1.15,2014-08-21 06:31:00,
2014-08-21 02:33:00,71.3,68.9,30.01,SSW,198,0.0,0.0,92,0.00,,,0.00,Wunderground v.1.15,2014-08-21 06:33:00,
2014-08-21 02:34:00,71.3,68.9,30.01,SSW,198,0.0,0.0,92,0.00,,,0.00,Wunderground v.1.15,2014-08-21 06:34:00,
2014-08-21 02:35:00,71.3,68.9,30.01,SSW,198,0.0,0.0,92,0.00,,,0.00,Wunderground v.1.15,2014-08-21 06:35:00,
2014-08-21 02:36:00,71.2,68.8,30.00,SSW,198,0.0,0.0,92,0.00,,,0.00,Wunderground v.1.15,2014-08-21 06:36:00,
2014-08-21 02:37:00,71.2,68.8,30.00,SSW,198,0.0,0.0,92,0.00,,,0.00,Wunderground v.1.15,2014-08-21 06:37:00,
2014-08-21 02:39:00,71.1,68.7,30.00,SSW,198,0.0,0.0,92,0.00,,,0.00,Wunderground v.1.15,2014-08-21 06:39:00,
2014-08-21 02:40:00,71.0,68.6,30.00,SSW,198,0.0,0.0,92,0.00,,,0.00,Wunderground v.1.15,2014-08-21 06:40:00,
2014-08-21 02:41:00,71.0,68.6,30.00,SSW,198,0.0,0.0,92,0.00,,,0.00,Wunderground v.1.15,2014-08-21 06:41:00,
2014-08-21 02:42:00,70.9,68.8,30.00,SSW,198,0.0,0.0,93,0.00,,,0.00,Wunderground v.1.15,2014-08-21 06:42:00,
2014-08-21 02:44:00,70.9,68.8,30.00,SSW,198,0.0,0.0,93,0.00,,,0.00,Wunderground v.1.15,2014-08-21 06:44:00,
2014-08-21 02:45:00,70.8,68.7,30.00,SSW,198,0.0,0.0,93,0.00,,,0.00,Wunderground v.1.15,2014-08-21 06:45:00,
2014-08-21 02:46:00,70.8,68.7,30.00,SSW,198,0.0,0.0,93,0.00,,,0.00,Wunderground v.1.15,2014-08-21 06:46:00,
2014-08-21 02:47:00,70.7,68.6,30.00,SSW,198,0.0,0.0,93,0.00,,,0.00,Wunderground v.1.15,2014-08-21 06:47:00,
2014-08-21 02:49:00,70.7,68.6,30.00,SSW,198,0.0,0.0,93,0.00,,,0.00,Wunderground v.1.15,2014-08-21 06:49:00,
2014-08-21 02:50:00,70.6,68.5,30.00,SSW,198,0.0,0.0,93,0.00,,,0.00,Wunderground v.1.15,2014-08-21 06:50:00,
2014-08-21 02:51:00,70.6,68.5,30.00,SSW,198,0.0,0.0,93,0.00,,,0.00,Wunderground v.1.15,2014-08-21 06:51:00,
2014-08-21 02:52:00,70.6,68.5,30.00,SSW,198,0.0,0.0,93,0.00,,,0.00,Wunderground v.1.15,2014-08-21 06:52:00,
2014-08-21 02:55:00,70.5,68.4,30.00,SSW,198,0.0,0.0,93,0.00,,,0.00,Wunderground v.1.15,2014-08-21 06:55:00,
2014-08-21 02:57:00,70.4,68.6,30.00,SSW,198,0.0,0.0,94,0.00,,,0.00,Wunderground v.1.15,2014-08-21 06:57:00,
2014-08-21 03:00:00,70.4,68.6,30.00,SSW,198,0.0,0.0,94,0.00,,,0.00,Wunderground v.1.15,2014-08-21 07:00:00,
2014-08-21 03:02:00,70.3,68.5,30.00,SSW,198,0.0,0.0,94,0.00,,,0.00,Wunderground v.1.15,2014-08-21 07:02:00,
2014-08-21 03:03:00,70.3,68.5,30.00,SSW,198,0.0,0.0,94,0.00,,,0.00,Wunderground v.1.15,2014-08-21 07:03:00,
2014-08-21 03:05:00,70.3,68.5,30.00,SSW,198,0.0,0.0,94,0.00,,,0.00,Wunderground v.1.15,2014-08-21 07:05:00,
2014-08-21 03:07:00,70.2,68.4,30.00,SSW,198,0.0,0.0,94,0.00,,,0.00,Wunderground v.1.15,2014-08-21 07:07:00,
2014-08-21 03:08:00,70.2,68.4,30.00,SSW,198,0.0,0.0,94,0.00,,,0.00,Wunderground v.1.15,2014-08-21 07:08:00,
2014-08-21 03:11:00,70.1,68.3,30.00,SSW,198,0.0,0.0,94,0.00,,,0.00,Wunderground v.1.15,2014-08-21 07:11:00,
2014-08-21 03:13:00,70.0,68.2,30.01,SSW,198,0.0,0.0,94,0.00,,,0.00,Wunderground v.1.15,2014-08-21 07:13:00,
2014-08-21 03:14:00,70.0,68.2,30.01,SSW,198,0.0,0.0,94,0.00,,,0.00,Wunderground v.1.15,2014-08-21 07:14:00,
2014-08-21 03:16:00,69.9,68.1,30.01,SSW,198,0.0,0.0,94,0.00,,,0.00,Wunderground v.1.15,2014-08-21 07:16:00,
2014-08-21 03:18:00,69.9,68.1,30.01,SSW,198,0.0,0.0,94,0.00,,,0.00,Wunderground v.1.15,2014-08-21 07:18:00,
2014-08-21 03:19:00,69.9,68.1,30.01,SSW,198,0.0,0.0,94,0.00,,,0.00,Wunderground v.1.15,2014-08-21 07:19:00,
2014-08-21 03:21:00,69.8,68.0,30.01,SSW,198,0.0,0.0,94,0.00,,,0.00,Wunderground v.1.15,2014-08-21 07:21:00,
2014-08-21 03:22:00,69.8,68.0,30.01,SSW,198,0.0,0.0,94,0.00,,,0.00,Wunderground v.1.15,2014-08-21 07:22:00,
2014-08-21 03:23:00,69.8,68.3,30.01,SSW,198,0.0,0.0,95,0.00,,,0.00,Wunderground v.1.15,2014-08-21 07:23:00,
2014-08-21 03:24:00,69.8,68.3,30.01,SSW,198,0.0,0.0,95,0.00,,,0.00,Wunderground v.1.15,2014-08-21 07:24:00,
2014-08-21 03:26:00,69.8,68.3,30.01,SSW,198,0.0,1.0,95,0.00,,,0.00,Wunderground v.1.15,2014-08-21 07:26:00,
2014-08-21 03:27:00,69.8,68.3,30.01,SSW,198,0.0,1.0,95,0.00,,,0.00,Wunderground v.1.15,2014-08-21 07:27:00,
2014-08-21 03:28:00,69.8,68.3,30.01,SSW,198,0.0,1.0,95,0.00,,,0.00,Wunderground v.1.15,2014-08-21 07:28:00,
2014-08-21 03:29:00,69.8,68.3,30.01,SSW,198,0.0,1.0,95,0.00,,,0.00,Wunderground v.1.15,2014-08-21 07:29:00,
2014-08-21 03:32:00,69.8,68.3,30.00,SSW,198,0.0,1.0,95,0.00,,,0.00,Wunderground v.1.15,2014-08-21 07:32:00,
2014-08-21 03:33:00,69.8,68.3,30.01,SSW,198,0.0,1.0,95,0.00,,,0.00,Wunderground v.1.15,2014-08-21 07:33:00,
2014-08-21 03:34:00,69.7,68.2,30.00,SSW,198,0.0,0.0,95,0.00,,,0.00,Wunderground v.1.15,2014-08-21 07:34:00,
2014-08-21 03:37:00,69.7,68.2,30.01,SSW,198,0.0,0.0,95,0.00,,,0.00,Wunderground v.1.15,2014-08-21 07:37:00,
2014-08-21 03:38:00,69.7,68.2,30.01,SSW,198,0.0,0.0,95,0.00,,,0.00,Wunderground v.1.15,2014-08-21 07:38:00,
2014-08-21 03:39:00,69.7,68.2,30.01,SSW,198,0.0,0.0,95,0.00,,,0.00,Wunderground v.1.15,2014-08-21 07:39:00,
2014-08-21 03:41:00,69.6,68.1,30.01,SSW,198,0.0,0.0,95,0.00,,,0.00,Wunderground v.1.15,2014-08-21 07:41:00,
2014-08-21 03:42:00,69.6,68.1,30.00,SSW,198,0.0,0.0,95,0.00,,,0.00,Wunderground v.1.15,2014-08-21 07:42:00,
2014-08-21 03:43:00,69.6,68.1,30.00,SSW,198,0.0,0.0,95,0.00,,,0.00,Wunderground v.1.15,2014-08-21 07:43:00,
2014-08-21 03:44:00,69.6,68.1,30.00,SSW,198,0.0,0.0,95,0.00,,,0.00,Wunderground v.1.15,2014-08-21 07:44:00,
2014-08-21 03:45:00,69.6,68.1,30.00,SSW,198,0.0,0.0,95,0.00,,,0.00,Wunderground v.1.15,2014-08-21 07:45:00,